Location: Unspecified
(0.0000°N, 0.0000°E)
Time: 20:11:39
(UTC+00:00)

DMSP 5D-2 F13 DEB - Pass Details

Date: 18 February 2026
Orbit: 782 x 824 km, 98.9° (Epoch: 12 March)

Event Time Altitude Azimuth Distance (km) Brightness Sun altitude
Rises 20:09:20 0° 193° (SSW) 3,276 ? -28.2°
Reaches altitude 10° 20:12:11 10° 209° (SSW) 2,341 ? -28.9°
Maximum altitude 20:15:58 21° 257° (WSW) 1,701 ? -29.9°
Drops below altitude 10° 20:19:45 10° 305° (NW) 2,329 ? -30.8°
Sets 20:22:36 0° 321° (NW) 3,255 ? -31.5°
